Location: Beadle
(51.4667°N, 109.0000°W)
Time: 04:42:47
(UTC+00:00)

Altair - Pass Details

Date: 02 June 2022
Orbit: 1501 x 1682 km, 47.2° (Epoch: 30 June)

Event Time Altitude Azimuth Distance (km) Brightness Sun altitude
Rises 02:19:22 0° 279° (W) 4,888 11.8 7.6°
Reaches altitude 10° 02:22:32 10° 276° (W) 3,916 11.2 7.2°
Maximum altitude 02:32:21 59° 200° (SSW) 1,890 8.1 5.8°
Drops below altitude 10° 02:42:12 10° 125° (SE) 3,933 9.0 4.5°
Sets 02:45:24 0° 121° (ESE) 4,910 9.4 4.1°
